User: anonymous   Login
Location: Unspecified
(0.0000°N, 0.0000°E)
Time: 12:06:38
(UTC+00:00)
Language:

NOSS 7 (A) - Orbit

View from above orbital plane
View from above orbital plane
View from above satellite
View from above satellite

Ground track
Ground track

The orbit data is extracted from the following two-line orbital elements,

1 16591U 86014A   18304.72657526 0.00000850  00000-0  75218-4 0    00
2 16591  63.2981 289.6631 0915110  58.4812 301.5188 13.49165941    02
Epoch (UTC): 31 October 2018 17:26:16
Eccentricity: 0.0915110
inclination: 63.2981°
perigee height: 393 km
apogee height: 1757 km
right ascension of ascending node: 289.6631°
argument of perigee: 58.4812°
revolutions per day: 13.49165941
mean anomaly at epoch: 301.5188°
orbit number at epoch: 0

The dashed part of the orbit path shows where the satellite is in the earth's shadow,  

DLR